Location: Baix
(44.7118°N, 4.7648°E)
Time: 18:09:23
(UTC+00:00)

deb Explorer IX - All Passes

Search period start: 04 December 2020 00:00
Search period end: 14 December 2020 00:00
Orbit: 537 x 1105 km, 38.8° (Epoch: 03 December)

Date Brightness Start Highest point End Pass type
(mag) Time Alt. Az. Time Alt. Az. Time Alt. Az.
04 Dec - 12:45:42 10° SSW 12:50:43 21° SSE 12:55:26 10° ESE daylight
04 Dec - 14:30:49 10° SW 14:37:14 41° SSE 14:42:53 10° E daylight
04 Dec - 16:17:42 10° WSW 16:23:57 49° S 16:29:19 10° ESE daylight
04 Dec - 18:05:12 10° W 18:10:25 31° SSW 18:14:55 10° SE visible
04 Dec - 19:55:33 10° SW 19:56:06 10° SW 19:56:38 10° SSW visible
05 Dec - 12:22:07 10° SSW 12:27:16 21° SSE 12:32:09 10° ESE daylight
05 Dec - 14:07:15 10° SW 14:13:48 42° SSE 14:19:39 10° E daylight
05 Dec - 15:54:09 10° WSW 16:00:34 50° S 16:06:07 10° ESE daylight
05 Dec - 17:41:40 10° W 17:47:03 32° SSW 17:51:45 10° SE visible
05 Dec - 19:31:33 10° SW 19:32:47 11° SW 19:34:00 10° SSW visible
06 Dec - 11:58:33 10° SSW 12:03:49 22° SSE 12:08:51 10° ESE daylight
06 Dec - 13:43:42 10° SW 13:50:21 42° SSE 13:56:22 10° E daylight
06 Dec - 15:30:35 10° WSW 15:37:10 51° S 15:42:53 10° ESE daylight
06 Dec - 17:18:06 10° W 17:23:42 33° SSW 17:28:34 10° SE visible
06 Dec - 19:07:45 10° WSW 19:09:27 11° SW 19:11:06 10° SSW visible
07 Dec - 11:35:01 10° SSW 11:40:21 22° SSE 11:45:30 10° ESE daylight
07 Dec - 13:20:09 10° SW 13:26:53 43° SSE 13:33:04 10° E daylight
07 Dec - 15:07:02 10° WSW 15:13:44 51° S 15:19:38 10° ESE daylight
07 Dec - 16:54:32 10° W 17:00:19 34° SSW 17:05:22 10° SE visible
07 Dec - 18:44:01 10° WSW 18:46:07 12° SW 18:48:07 10° SSW visible
08 Dec - 11:11:29 10° SSW 11:16:52 22° SSE 11:22:07 10° E daylight
08 Dec - 12:56:36 10° SW 13:03:25 44° SSE 13:09:44 10° E daylight
08 Dec - 14:43:27 10° WSW 14:50:18 52° S 14:56:22 10° ESE daylight
08 Dec - 16:30:58 10° W 16:36:55 35° SSW 16:42:09 10° SE visible
08 Dec - 18:20:19 10° WSW 18:22:46 13° SW 18:25:04 10° SSW visible
09 Dec - 10:47:58 10° SSW 10:53:23 23° SSE 10:58:43 10° E daylight
09 Dec - 12:33:04 10° SW 12:39:55 44° SSE 12:46:23 10° E daylight
09 Dec - 14:19:54 10° WSW 14:26:50 53° S 14:33:04 10° ESE daylight
09 Dec - 16:07:23 10° W 16:13:30 36° SSW 16:18:54 10° SE daylight
09 Dec - 17:56:37 10° WSW 17:59:22 13° SW 18:01:59 10° SSW visible
10 Dec - 10:24:28 10° SSW 10:29:53 23° SSE 10:35:17 10° E daylight
10 Dec - 12:09:32 10° SW 12:16:25 44° SSE 12:23:00 10° E daylight
10 Dec - 13:56:20 10° WSW 14:03:21 53° S 14:09:45 10° ESE daylight
10 Dec - 15:43:49 10° W 15:50:04 36° SSW 15:55:38 10° SE daylight
10 Dec - 17:32:57 10° WSW 17:35:59 14° SW 17:38:51 10° S visible
11 Dec - 10:01:00 10° SSW 10:06:23 23° SSE 10:11:49 10° E daylight
11 Dec - 11:46:01 10° SW 11:52:54 45° SSE 11:59:35 10° E daylight
11 Dec - 13:32:47 10° WSW 13:39:52 54° S 13:46:24 10° ESE daylight
11 Dec - 15:20:14 10° W 15:26:37 37° SSW 15:32:21 10° SE daylight
11 Dec - 17:09:17 10° WSW 17:12:35 14° SW 17:15:41 10° S visible
12 Dec - 09:37:33 10° SSW 09:42:53 23° SSE 09:48:19 10° E daylight
12 Dec - 11:22:32 10° SW 11:29:23 45° SSE 11:36:09 10° E daylight
12 Dec - 13:09:14 10° WSW 13:16:21 54° S 13:23:01 10° ESE daylight
12 Dec - 14:56:39 10° W 15:03:08 37° SSW 15:09:02 10° SE daylight
12 Dec - 16:45:37 10° WSW 16:49:09 15° SW 16:52:29 10° S visible
13 Dec - 09:14:07 10° SSW 09:19:22 23° SSE 09:24:49 10° E daylight
13 Dec - 10:59:02 10° SW 11:05:52 45° SSE 11:12:41 10° E daylight
13 Dec - 12:45:43 10° WSW 12:52:50 54° S 12:59:38 10° ESE daylight
13 Dec - 14:33:05 10° W 14:39:39 38° SSW 14:45:42 10° SE daylight
13 Dec - 16:21:59 10° WSW 16:25:43 15° SW 16:29:14 10° S daylight
